Wind_Speed
14 13 13 13 13 14 14 15 15 16 18 18 17 16 15 15 15 16 17 18 18 19 19 20 20 20 20 20 21 21 22 22 22 23 23 23 24 23 23 23 23 24 24 24 25 24 24 24 24 23 23 24 24 23 23 21 21 21 21 21 21 20 21
14 14 15 16 16 15 14 14 15 15 17 18 17 16 16 15 15 15 16 17 17 18 18 19 19 19 19 19 19 19 20 20 21 21 22 22 23 22 22 22 23 23 23 24 24 23 22 23 24 23 23 24 25 24 24 23 23 23 21 21 21 22 22
15 15 17 19 19 17 15 14 14 14 16 17 16 16 16 15 15 15 15 15 16 16 17 17 17 18 18 18 18 18 18 18 18 19 19 20 21 21 21 21 22 22 22 24 24 22 22 23 24 24 23 24 24 25 25 25 24 24 22 22 21 22 23
15 15 16 18 19 18 16 16 15 13 14 16 16 16 15 15 15 14 15 15 15 15 15 15 16 16 16 16 16 17 17 17 17 17 18 18 19 19 20 20 20 20 21 23 23 23 24 25 25 24 23 23 24 25 26 26 25 25 24 24 24 24 24
14 12 13 17 18 19 18 18 17 14 13 14 15 16 16 16 15 15 15 15 15 15 15 14 14 14 15 15 15 15 16 16 16 16 16 17 17 18 18 19 19 19 20 21 22 23 24 24 25 25 24 24 24 24 25 25 26 26 26 26 26 26 25
16 15 16 18 18 19 19 19 18 16 14 14 15 16 16 16 16 16 15 15 15 15 14 14 14 14 14 14 14 14 14 15 15 15 15 15 16 16 17 17 18 18 19 20 21 22 23 23 24 24 24 24 25 24 24 25 25 25 25 26 26 26 26
19 20 20 19 18 18 18 17 17 16 14 13 14 16 16 16 16 16 16 16 15 15 14 14 14 14 14 14 14 14 14 14 13 13 13 13 14 14 15 15 16 17 17 18 19 20 21 22 23 23 23 24 24 25 25 25 25 25 25 25 26 27 28
20 19 18 18 18 18 18 16 15 15 14 13 14 15 16 16 16 16 15 15 14 14 13 13 13 14 15 15 15 15 14 14 13 12 12 12 12 13 13 13 14 14 15 16 17 18 19 20 21 22 22 23 23 24 24 25 25 25 25 25 26 27 29
18 17 16 18 19 19 19 17 16 16 15 14 14 14 15 15 15 14 14 13 13 13 12 12 13 14 15 16 16 16 16 15 14 13 12 12 11 11 11 12 12 13 13 14 15 16 17 18 19 20 21 21 21 22 23 23 23 23 24 24 25 26 27
16 15 15 15 15 16 17 17 17 17 16 14 14 14 15 15 14 13 13 13 12 12 12 13 13 14 15 15 16 16 16 16 15 14 13 13 12 11 10 10 11 11 12 13 13 14 15 16 16 18 19 19 20 20 20 21 21 21 22 22 23 24 24
13 14 14 13 12 13 15 17 18 17 15 14 15 15 15 14 13 13 13 13 13 13 13 13 13 14 14 15 15 15 15 15 14 14 14 13 13 12 12 11 11 11 11 12 12 13 13 14 15 15 16 17 18 18 19 19 19 19 19 20 20 21 22
12 12 13 12 11 13 16 17 17 16 15 15 16 15 15 14 14 13 13 13 13 13 13 13 13 14 14 15 15 15 15 15 15 14 14 14 14 13 13 12 12 12 12 12 13 13 14 14 15 15 15 16 17 17 17 17 17 17 18 18 18 18 19
10 10 10 10 11 13 14 16 17 16 15 17 17 17 16 15 14 14 12 12 12 13 13 13 13 14 14 14 15 15 15 15 15 15 14 14 14 14 14 13 13 13 12 13 13 13 14 15 15 16 16 16 17 17 17 17 16 16 17 17 17 17 17
9 10 10 11 12 13 15 17 18 17 16 17 18 17 16 15 13 13 11 11 11 12 12 12 13 13 13 14 14 15 15 16 16 16 15 15 14 14 14 14 14 14 14 14 14 14 14 15 16 16 17 17 17 18 18 18 17 16 17 17 17 17 17
12 12 13 13 14 15 17 18 18 17 16 17 17 17 16 15 14 14 13 12 13 13 14 14 14 14 14 14 13 14 15 16 17 17 17 16 15 15 15 15 16 17 17 17 17 16 16 16 16 17 18 18 19 19 19 19 19 18 17 17 17 17 17
14 15 16 16 16 15 16 17 18 17 15 16 18 18 17 17 18 18 17 16 17 17 18 19 19 18 17 16 15 15 15 16 17 18 18 19 18 18 17 17 18 19 20 20 21 20 19 18 17 18 19 19 20 20 20 20 20 20 20 19 19 19 19
15 15 16 16 15 13 13 15 17 18 18 18 18 19 20 20 21 21 20 19 19 19 20 21 22 21 20 19 19 19 18 18 18 19 19 19 19 19 19 19 19 20 21 22 23 23 22 21 20 19 19 19 20 21 21 22 22 22 22 21 21 21 21
16 15 15 15 14 14 14 14 14 16 18 19 19 19 21 21 21 22 21 20 20 20 20 21 21 22 21 20 19 19 19 20 20 20 20 20 20 20 20 20 21 21 22 22 23 23 23 23 22 21 21 20 21 21 22 22 22 23 23 23 22 23 23
17 17 16 16 17 17 16 15 15 15 16 18 20 20 20 19 20 22 21 20 21 21 21 21 20 21 22 19 17 16 17 18 19 20 20 20 20 20 20 21 21 21 21 21 22 22 23 23 23 24 24 24 23 23 24 24 24 24 24 24 24 24 24
19 19 19 20 21 19 17 16 17 18 18 20 22 22 21 20 20 21 20 20 22 23 22 22 22 22 22 20 18 18 19 19 20 20 20 20 20 21 22 22 22 22 22 22 22 23 23 23 23 24 26 27 27 27 27 27 27 27 27 27 27 28 27
24 23 23 24 22 20 19 18 19 20 20 20 20 21 22 22 22 22 21 22 24 24 24 25 25 25 24 23 23 25 25 25 24 24 24 24 23 23 24 25 26 26 26 26 26 26 25 25 25 25 26 27 28 29 30 30 30 30 30 30 31 31 32
29 28 28 27 25 23 23 22 21 20 21 21 21 21 22 24 26 28 29 29 29 29 29 29 29 29 29 30 31 31 31 31 30 29 29 29 29 29 28 29 29 30 31 31 31 31 31 30 30 29 28 28 28 29 30 31 32 33 33 34 34 35 35
34 33 32 32 31 30 29 28 26 25 25 26 27 28 28 29 30 31 32 31 31 32 32 33 33 34 35 37 37 36 37 37 36 34 33 33 33 34 34 34 34 34 35 35 35 36 36 36 36 35 34 33 32 32 33 34 35 36 37 38 39 39 40
38 37 36 35 34 33 32 32 32 31 30 30 30 31 32 32 31 31 31 31 31 31 32 33 34 35 37 38 39 39 39 40 39 37 36 36 36 37 38 38 39 38 38 38 38 39 40 40 40 40 39 39 38 38 38 39 40 40 41 42 42 43 44
40 39 39 37 36 36 35 35 35 35 34 33 32 32 32 32 32 31 32 32 33 33 34 35 36 36 36 36 37 36 36 36 35 35 36 36 37 38 39 40 40 41 41 41 41 42 43 43 42 43 43 43 42 42 42 43 43 44 43 44 44 45 46
42 41 40 39 38 38 38 37 37 36 36 35 34 34 34 35 34 33 33 33 34 35 36 36 36 36 36 36 36 35 35 34 35 35 36 36 37 37 38 39 40 41 41 42 43 44 45 45 46 46 46 46 46 46 46 46 46 46 45 46 46 47 47
43 43 43 42 41 40 40 39 39 39 38 38 37 37 37 38 37 36 35 35 36 36 37 37 37 38 38 37 37 37 37 37 37 37 37 38 38 38 38 39 40 41 42 43 43 44 45 46 47 48 48 48 49 49 49 49 49 49 48 47 47 47 49
45 45 44 43 43 43 43 43 42 42 41 40 39 39 39 39 39 39 39 39 39 39 39 40 40 40 40 39 39 40 40 40 40 40 41 40 40 40 40 40 40 41 42 43 44 45 46 46 47 48 49 49 50 50 51 51 51 50 49 49 48 48 50
45 44 44 44 44 43 43 43 42 42 42 42 42 42 42 42 42 42 43 43 43 43 42 42 42 42 42 42 42 42 43 43 43 43 43 43 43 43 43 42 41 41 42 43 44 45 46 46 47 48 49 49 50 50 51 51 51 51 50 50 50 50 52
42 42 42 42 42 41 40 41 42 42 43 43 43 44 44 45 45 45 45 45 45 44 44 44 43 43 44 44 44 44 44 44 44 44 44 45 45 45 44 44 44 43 43 43 43 44 45 46 46 47 48 49 49 50 50 51 51 51 51 52 52 53 54
38 39 40 41 40 40 40 41 42 43 43 44 44 44 44 45 45 45 45 45 45 45 44 44 44 44 45 45 46 45 45 45 45 45 45 45 45 45 45 45 45 44 43 43 43 44 44 45 46 46 47 48 49 49 50 50 51 52 52 53 54 54 55
37 38 39 40 41 41 42 43 44 44 45 45 46 45 44 44 44 44 45 45 45 45 45 45 46 46 47 47 47 47 47 46 46 46 46 46 46 45 45 45 45 44 44 43 43 43 44 44 45 45 46 46 47 48 48 49 50 50 51 52 53 54 54
42 41 40 42 44 45 45 46 46 46 46 48 50 49 47 47 47 47 47 47 47 46 47 47 47 47 47 47 47 47 47 47 47 47 46 46 45 45 45 45 44 44 44 44 44 44 44 44 44 44 44 45 45 46 46 47 47 48 49 50 51 52 53
48 44 43 44 46 48 49 48 48 47 47 51 54 54 52 51 51 50 50 49 49 49 49 49 49 49 49 48 48 48 48 48 47 47 46 46 45 45 45 44 44 44 44 44 44 44 44 44 44 43 43 43 44 44 45 45 45 46 47 47 48 50 51
53 51 50 50 51 52 52 52 51 50 51 53 55 56 55 54 53 52 51 51 51 52 52 52 51 51 50 50 50 49 49 48 48 47 47 46 46 45 45 44 44 44 43 43 43 43 43 43 43 42 42 42 43 43 44 44 45 45 46 46 47 48 49
57 57 58 58 58 57 57 56 55 56 57 57 58 58 57 57 56 55 55 55 55 55 53 52 51 51 51 50 50 49 49 48 48 48 48 47 47 46 45 44 44 43 43 43 42 42 42 42 42 42 41 42 42 43 43 44 44 45 46 46 47 47 48
58 59 60 61 61 61 61 61 60 61 61 61 61 60 60 59 58 58 58 57 57 55 54 52 51 51 50 50 49 49 49 49 48 48 48 48 47 46 45 45 44 44 43 43 42 41 41 41 41 41 41 41 41 42 43 44 44 45 45 46 46 46 47
Wind_Direction
271 276 283 290 294 293 291 290 288 285 282 278 273 269 266 263 260 257 253 249 246 246 247 249 250 253 255 257 259 260 261 262 262 262 262 262 261 261 261 260 260 261 262 264 263 262 263 263 263 261 259 260 261 261 261 262 262 262 263 262 260 250 243
273 279 286 291 294 290 283 282 283 283 280 276 271 269 267 265 263 260 256 252 248 245 245 246 247 249 251 252 254 256 258 260 262 263 263 264 264 264 264 263 263 263 264 264 263 263 263 262 262 261 258 258 259 259 259 260 261 261 263 263 259 252 246
282 289 293 294 293 290 282 276 279 282 282 277 271 267 265 265 265 264 262 258 254 251 248 248 248 249 250 251 253 255 257 259 261 263 265 266 267 267 268 268 268 268 268 268 268 267 266 263 261 260 258 256 256 257 257 257 259 261 263 262 259 255 251
288 294 298 295 287 284 280 275 276 281 282 280 275 271 267 264 264 263 263 261 258 255 253 252 253 254 255 255 257 259 261 263 264 266 268 269 270 271 272 272 272 272 271 271 271 269 267 267 266 265 263 260 258 257 258 258 259 261 261 260 258 258 255
282 286 300 303 287 275 274 276 279 281 281 280 279 275 270 266 263 261 260 258 257 255 254 254 256 258 259 260 261 263 264 266 268 270 271 273 274 275 275 275 275 274 272 271 271 270 268 268 269 269 269 267 265 262 261 260 259 259 259 257 255 256 256
270 269 285 300 290 273 272 276 279 280 280 281 280 277 273 269 265 262 260 257 255 254 254 255 257 259 261 262 264 266 267 269 269 271 273 275 277 277 278 278 277 276 274 273 272 271 270 269 268 268 267 268 268 266 263 261 259 258 256 254 253 253 254
268 267 277 290 285 272 269 274 279 280 282 286 286 283 277 273 270 266 263 260 258 257 257 257 258 260 261 262 263 265 267 269 271 272 274 275 276 277 278 279 278 278 277 276 275 273 272 271 270 269 267 266 266 265 264 261 260 258 255 253 252 253 253
272 268 273 283 280 266 260 267 272 272 277 286 293 292 285 279 274 269 265 262 260 260 261 262 262 263 264 264 263 263 264 266 268 271 274 275 275 275 276 276 276 276 276 276 275 274 274 273 273 273 271 270 268 267 266 264 262 260 258 255 254 253 253
277 272 271 277 275 259 253 262 266 264 270 281 292 296 290 284 278 272 267 262 259 259 259 261 263 265 266 266 266 266 265 265 266 267 270 272 275 276 276 276 276 276 276 275 275 274 273 272 273 274 274 273 272 270 269 268 266 264 262 260 258 257 256
274 273 269 273 272 255 250 260 265 266 271 279 288 291 288 284 280 275 272 267 263 261 259 259 260 261 262 263 265 266 266 267 266 267 268 269 272 274 276 277 277 278 278 277 277 276 276 274 273 274 275 275 274 274 273 272 271 269 267 265 264 263 262
274 272 272 274 274 264 259 262 266 268 272 278 284 285 281 277 276 273 272 271 270 269 266 263 261 261 261 260 261 262 263 265 266 268 269 271 273 274 276 278 279 281 282 283 284 283 282 280 278 277 276 277 277 277 276 276 274 272 270 268 267 267 267
280 279 281 281 276 268 262 262 264 266 271 277 281 280 274 269 268 269 269 271 272 271 270 267 264 262 261 262 262 261 262 262 263 265 268 270 273 276 278 280 282 284 286 288 290 291 291 290 288 286 282 280 279 278 277 276 275 274 273 270 269 268 268
276 274 278 278 274 270 265 263 261 259 263 271 275 277 273 269 269 272 272 269 267 265 265 265 265 264 262 261 262 262 263 264 265 266 268 270 273 276 279 281 284 285 287 288 289 291 292 292 292 290 288 285 282 280 279 277 276 275 274 274 272 271 270
261 262 266 270 270 268 264 261 259 254 254 262 271 277 276 271 269 271 272 270 267 265 262 262 263 264 263 261 260 261 263 264 266 267 268 270 272 275 277 278 281 282 283 285 286 288 289 290 289 288 287 284 282 280 280 279 278 276 275 274 274 274 273
259 263 268 271 269 266 262 257 254 252 250 257 268 276 278 275 269 268 272 275 276 274 272 272 270 266 262 259 258 260 262 262 263 264 265 267 268 269 270 271 274 276 279 281 282 285 287 289 289 288 285 283 280 278 277 276 275 273 271 270 270 270 270
270 269 270 270 270 269 264 258 255 254 253 256 261 268 275 275 269 266 269 273 274 274 275 274 271 269 266 262 261 263 263 261 261 260 261 263 263 263 264 266 270 274 277 279 280 281 283 284 286 285 283 282 280 278 276 274 273 272 271 270 268 268 267
277 277 276 274 272 268 262 260 259 257 256 258 262 266 271 272 270 267 267 272 275 277 280 276 272 270 267 264 265 265 262 260 258 258 258 259 261 262 264 267 270 273 275 277 277 277 277 278 279 279 280 280 279 278 276 274 272 271 270 269 268 268 267
276 278 277 274 270 266 262 262 263 259 257 260 264 267 268 267 269 270 270 276 280 281 282 279 273 267 262 264 269 268 263 259 256 255 255 256 259 262 266 269 271 273 274 273 272 272 271 272 274 274 275 275 275 275 274 274 273 272 271 269 266 265 265
276 275 276 275 272 270 268 264 263 261 261 263 264 266 265 261 262 267 270 273 274 274 274 273 267 260 259 264 270 270 268 265 259 256 256 257 259 261 263 265 268 270 271 269 267 266 268 271 273 274 274 273 273 272 272 272 272 272 272 270 268 266 264
277 274 277 280 277 273 271 267 264 263 264 264 263 262 262 257 256 262 267 267 267 267 268 269 267 263 261 263 266 271 275 272 267 264 263 262 261 261 261 262 263 265 266 265 263 262 264 269 273 274 275 275 274 273 272 272 272 272 272 272 272 271 270
278 276 277 279 277 275 274 270 265 265 268 267 261 257 258 257 256 261 266 268 267 266 265 266 266 265 262 264 271 277 277 274 272 271 270 268 266 265 265 265 264 264 264 264 263 261 261 264 268 271 272 273 273 273 272 272 272 273 273 273 273 274 273
277 276 274 274 275 276 276 271 264 263 265 266 261 256 257 258 260 265 270 272 269 266 264 263 262 262 262 266 274 278 276 274 274 272 270 270 270 270 270 269 269 268 267 266 266 265 264 265 267 268 268 269 270 270 271 271 272 273 274 275 275 275 274
274 274 273 273 274 274 273 271 267 265 264 264 263 261 261 262 264 269 272 272 268 265 264 264 263 264 265 269 274 275 274 273 273 271 270 270 270 271 271 271 271 271 271 271 270 270 269 268 268 268 267 266 265 265 266 267 268 269 271 272 273 274 273
271 272 272 272 272 272 272 271 270 269 267 266 265 263 263 264 267 269 270 269 267 266 267 268 269 269 270 272 274 274 273 272 271 271 271 272 271 271 271 271 271 272 272 272 273 272 272 271 270 270 269 268 267 265 264 264 264 265 267 269 270 271 272
271 272 272 271 270 270 271 271 270 269 269 270 269 266 263 262 264 265 265 266 267 268 270 272 273 273 273 272 272 272 270 270 270 271 272 273 273 272 272 272 272 272 272 272 272 272 272 271 271 271 270 269 269 267 266 265 264 264 265 267 268 270 270
271 271 271 271 270 269 269 269 268 269 269 269 268 265 262 261 262 264 265 266 267 268 269 271 271 272 271 270 269 270 270 271 271 272 272 272 272 272 273 273 273 273 272 272 271 270 271 271 270 270 270 270 269 269 268 267 266 265 265 265 265 266 268
270 271 270 270 269 268 267 266 266 267 267 267 265 263 262 263 265 268 271 272 271 270 270 269 269 270 271 271 271 272 273 273 274 274 274 273 273 273 273 274 273 273 273 272 272 271 271 271 271 271 271 271 271 271 271 270 269 269 268 267 266 266 266
269 269 269 268 268 269 269 268 268 268 268 267 267 267 266 267 269 271 274 274 274 273 271 271 271 271 272 273 275 276 276 277 277 278 278 277 277 277 277 276 274 273 271 271 271 271 271 271 271 272 272 273 273 273 273 273 272 272 271 270 269 268 267
269 269 268 269 270 271 272 271 271 270 270 269 269 270 270 270 271 273 274 274 273 273 272 271 272 272 273 274 276 277 278 278 278 279 279 280 280 280 280 279 277 274 271 270 269 269 270 270 271 271 272 273 273 273 273 273 273 273 273 272 271 269 269
268 268 268 268 270 271 271 271 271 271 271 270 270 270 270 270 271 272 272 273 273 273 273 273 273 274 275 276 277 278 278 278 278 279 279 280 280 280 280 280 279 277 274 272 270 269 269 269 269 269 270 270 271 271 272 272 273 272 272 271 270 270 269
266 266 266 266 267 267 267 268 269 269 269 269 269 270 270 270 270 271 272 272 273 273 274 274 275 276 277 279 280 280 280 280 280 280 280 280 280 279 279 279 278 278 276 274 273 271 270 270 269 269 269 270 270 271 271 271 272 272 272 271 271 271 270
260 262 263 262 262 262 263 263 264 264 265 267 267 268 270 271 271 271 272 273 273 274 275 276 278 279 280 281 281 281 281 281 281 281 281 280 280 279 279 278 278 277 277 275 274 273 272 272 271 271 271 271 271 272 272 272 273 273 273 273 273 273 272
255 258 261 262 261 260 261 262 264 265 266 268 268 268 270 272 272 273 274 274 274 275 276 278 280 280 280 280 280 280 280 280 281 281 281 280 280 280 279 279 278 277 276 275 275 274 274 274 274 274 274 274 274 274 273 273 274 274 274 274 274 274 273
256 258 260 261 262 262 262 264 266 265 265 267 269 271 272 273 273 274 274 275 276 277 279 280 281 280 279 279 279 279 280 280 280 280 280 280 280 280 279 279 278 277 276 276 275 275 275 275 276 276 276 276 275 275 275 275 275 275 275 274 274 274 274
258 258 258 258 260 261 263 264 263 263 263 266 269 272 273 273 273 274 274 275 277 279 280 281 281 280 279 279 280 280 280 281 280 280 280 280 280 279 279 278 278 278 277 276 276 275 275 275 275 275 275 275 275 275 276 276 276 276 275 275 275 275 276
259 259 259 260 261 262 263 263 263 263 265 267 269 270 271 272 272 273 274 275 277 278 279 279 279 279 279 279 280 280 280 280 280 280 280 280 280 280 279 279 278 277 276 275 274 274 275 275 275 275 276 276 276 276 276 276 276 276 276 276 277 277 278
261 261 261 262 262 263 263 264 264 265 265 266 268 269 270 271 271 272 273 274 275 277 277 277 277 277 278 278 278 278 278 278 279 279 280 280 280 279 279 278 277 276 275 274 274 275 276 276 277 278 278 277 277 276 276 276 277 277 277 277 278 278 279
Height
5769 5768 5769 5769 5769 5769 5769 5770 5770 5770 5770 5769 5769 5769 5769 5768 5768 5768 5769 5769 5769 5769 5769 5770 5770 5770 5770 5770 5770 5770 5770 5770 5771 5771 5771 5772 5772 5773 5773 5774 5774 5774 5775 5775 5775 5776 5776 5777 5777 5778 5779 5778 5777 5778 5779 5780 5780 5780 5780 5780 5781 5782 5781
5767 5767 5767 5766 5766 5767 5767 5767 5767 5768 5768 5768 5768 5767 5767 5767 5767 5767 5767 5767 5767 5767 5768 5768 5768 5768 5768 5768 5768 5768 5768 5768 5769 5769 5769 5770 5770 5771 5771 5772 5772 5772 5773 5772 5772 5773 5773 5773 5774 5775 5776 5775 5775 5776 5777 5778 5777 5777 5777 5778 5778 5778 5778
5766 5766 5765 5764 5764 5764 5764 5764 5765 5765 5766 5766 5766 5766 5766 5765 5765 5765 5765 5765 5765 5765 5766 5766 5766 5766 5766 5766 5766 5766 5766 5766 5767 5767 5767 5768 5768 5768 5769 5769 5770 5770 5770 5770 5770 5771 5770 5770 5770 5771 5772 5772 5772 5773 5774 5775 5774 5774 5775 5775 5775 5775 5775
5764 5764 5763 5763 5762 5761 5761 5761 5762 5763 5764 5765 5765 5765 5764 5764 5763 5763 5763 5763 5763 5763 5763 5763 5764 5764 5764 5764 5763 5763 5763 5764 5764 5764 5765 5765 5765 5766 5766 5767 5767 5767 5768 5767 5768 5768 5768 5767 5768 5769 5769 5769 5770 5770 5771 5771 5772 5772 5773 5773 5773 5772 5772
5762 5762 5762 5761 5760 5760 5759 5759 5760 5761 5761 5762 5763 5763 5763 5762 5762 5761 5761 5761 5761 5760 5760 5760 5761 5761 5761 5762 5762 5761 5761 5761 5761 5762 5762 5762 5763 5763 5764 5764 5764 5765 5765 5765 5765 5766 5766 5765 5766 5766 5767 5767 5767 5768 5768 5769 5769 5770 5770 5770 5770 5770 5770
5760 5760 5759 5759 5758 5758 5757 5757 5758 5758 5759 5759 5760 5761 5761 5761 5760 5760 5759 5759 5759 5758 5758 5758 5758 5759 5759 5759 5760 5760 5760 5760 5759 5759 5760 5760 5760 5760 5761 5761 5762 5762 5762 5763 5763 5763 5763 5763 5763 5764 5764 5764 5764 5765 5766 5766 5767 5767 5767 5767 5767 5768 5768
5757 5757 5757 5757 5756 5756 5756 5756 5756 5756 5757 5757 5758 5758 5758 5758 5758 5758 5758 5758 5757 5757 5756 5756 5756 5756 5757 5757 5758 5758 5758 5758 5758 5758 5758 5758 5758 5758 5759 5759 5760 5760 5760 5761 5761 5761 5761 5761 5761 5761 5761 5762 5762 5762 5762 5763 5764 5764 5765 5765 5765 5765 5765
5753 5754 5755 5754 5754 5754 5753 5754 5754 5754 5755 5755 5755 5755 5756 5756 5756 5757 5757 5757 5756 5755 5754 5754 5754 5754 5755 5755 5756 5756 5756 5756 5756 5756 5756 5756 5756 5756 5756 5757 5757 5758 5758 5758 5758 5759 5759 5758 5758 5759 5759 5759 5759 5759 5760 5760 5761 5761 5762 5762 5762 5762 5762
5750 5751 5752 5751 5751 5751 5751 5751 5752 5752 5752 5752 5752 5753 5753 5754 5755 5755 5755 5755 5754 5753 5753 5752 5752 5753 5753 5754 5754 5754 5754 5754 5755 5755 5755 5755 5755 5755 5755 5755 5755 5755 5756 5756 5756 5757 5757 5757 5757 5757 5757 5757 5757 5757 5757 5758 5758 5759 5759 5759 5759 5759 5759
5748 5748 5748 5748 5748 5748 5749 5749 5749 5749 5750 5750 5750 5750 5751 5752 5753 5753 5753 5752 5751 5751 5751 5751 5751 5751 5752 5752 5752 5753 5753 5753 5753 5753 5753 5753 5753 5753 5753 5753 5753 5753 5754 5754 5754 5755 5755 5755 5755 5755 5755 5755 5754 5755 5755 5755 5756 5756 5757 5757 5757 5757 5757
5745 5745 5745 5746 5746 5746 5747 5747 5746 5746 5747 5747 5747 5748 5748 5749 5750 5750 5750 5749 5749 5749 5749 5749 5749 5750 5750 5751 5751 5751 5751 5751 5751 5751 5751 5751 5752 5752 5752 5752 5752 5752 5752 5752 5752 5753 5753 5753 5753 5753 5753 5753 5752 5752 5753 5753 5753 5754 5754 5754 5754 5754 5754
5743 5743 5743 5744 5744 5744 5744 5744 5744 5744 5744 5745 5745 5746 5746 5747 5747 5747 5747 5747 5747 5747 5747 5747 5747 5747 5748 5749 5749 5750 5750 5750 5750 5750 5750 5750 5750 5750 5750 5750 5750 5750 5750 5750 5750 5750 5751 5751 5751 5751 5751 5751 5750 5750 5750 5750 5750 5750 5751 5751 5751 5751 5751
5741 5740 5741 5741 5741 5742 5742 5743 5742 5742 5742 5742 5743 5744 5744 5745 5745 5745 5745 5745 5745 5745 5745 5745 5745 5745 5746 5746 5747 5747 5748 5748 5748 5748 5748 5748 5748 5748 5749 5749 5749 5749 5748 5748 5748 5748 5748 5749 5749 5749 5749 5749 5748 5748 5748 5748 5748 5748 5748 5748 5749 5749 5749
5738 5738 5738 5739 5739 5739 5739 5740 5740 5740 5740 5740 5741 5742 5742 5742 5743 5742 5743 5742 5742 5743 5743 5743 5743 5744 5744 5744 5745 5745 5745 5746 5746 5746 5746 5746 5746 5746 5746 5747 5747 5747 5746 5746 5746 5746 5746 5746 5747 5747 5747 5747 5747 5746 5746 5746 5746 5746 5746 5746 5746 5746 5746
5736 5736 5736 5736 5736 5736 5736 5736 5736 5737 5737 5738 5739 5739 5740 5740 5741 5740 5740 5740 5740 5741 5741 5741 5742 5742 5742 5742 5742 5743 5743 5743 5743 5744 5744 5744 5744 5743 5743 5744 5744 5744 5744 5744 5744 5744 5744 5744 5744 5744 5745 5745 5745 5745 5744 5744 5744 5744 5744 5744 5744 5744 5744
5733 5733 5733 5733 5733 5733 5733 5733 5733 5734 5734 5735 5736 5736 5737 5738 5738 5738 5738 5738 5738 5738 5739 5739 5739 5739 5740 5740 5740 5740 5741 5741 5741 5741 5741 5741 5741 5741 5741 5741 5741 5741 5741 5741 5742 5742 5742 5742 5742 5742 5742 5742 5742 5742 5742 5742 5742 5742 5742 5742 5741 5741 5741
5730 5730 5730 5730 5730 5730 5730 5730 5730 5731 5731 5731 5732 5733 5734 5734 5735 5735 5735 5735 5735 5735 5736 5736 5736 5737 5737 5737 5737 5738 5738 5738 5738 5739 5739 5739 5739 5739 5739 5739 5739 5739 5739 5739 5739 5739 5739 5739 5739 5739 5739 5739 5739 5739 5739 5739 5739 5739 5739 5739 5739 5739 5738
5728 5728 5728 5728 5727 5727 5728 5728 5728 5728 5728 5729 5729 5730 5730 5731 5732 5732 5732 5733 5733 5733 5733 5733 5734 5734 5734 5734 5734 5735 5735 5735 5735 5735 5735 5736 5736 5736 5736 5736 5736 5736 5736 5736 5736 5736 5736 5736 5736 5736 5736 5736 5736 5736 5736 5736 5736 5736 5736 5736 5736 5736 5736
5726 5726 5726 5725 5725 5725 5725 5726 5726 5726 5726 5726 5727 5727 5728 5728 5729 5728 5729 5730 5730 5730 5730 5730 5731 5731 5730 5731 5731 5732 5732 5732 5732 5732 5732 5732 5733 5733 5734 5734 5733 5733 5733 5733 5733 5733 5733 5733 5733 5733 5733 5733 5733 5733 5733 5733 5733 5733 5733 5733 5733 5733 5733
5723 5723 5723 5722 5722 5722 5722 5723 5723 5723 5723 5723 5723 5724 5725 5725 5726 5725 5726 5727 5727 5727 5727 5727 5728 5728 5727 5727 5728 5728 5729 5729 5729 5729 5729 5729 5729 5730 5730 5730 5730 5730 5730 5730 5730 5730 5730 5730 5730 5730 5730 5730 5730 5730 5730 5730 5730 5730 5730 5730 5730 5730 5730
5719 5719 5720 5718 5717 5718 5719 5719 5720 5720 5719 5719 5720 5721 5721 5722 5722 5722 5723 5723 5723 5723 5724 5724 5724 5724 5724 5724 5724 5724 5725 5726 5726 5726 5725 5725 5726 5726 5726 5726 5726 5726 5726 5726 5726 5726 5727 5727 5727 5727 5727 5726 5726 5726 5726 5726 5726 5726 5726 5726 5726 5726 5726
5714 5715 5716 5714 5714 5715 5715 5715 5716 5716 5716 5716 5717 5718 5718 5719 5719 5719 5719 5719 5720 5720 5720 5720 5720 5720 5720 5720 5720 5721 5721 5722 5722 5722 5721 5721 5721 5721 5721 5721 5721 5721 5722 5722 5722 5722 5722 5723 5723 5723 5723 5723 5723 5723 5722 5722 5722 5722 5722 5722 5722 5721 5721
5709 5710 5711 5710 5710 5710 5711 5711 5712 5712 5712 5713 5713 5714 5714 5715 5715 5715 5714 5714 5715 5715 5715 5715 5716 5716 5716 5716 5716 5717 5717 5717 5717 5717 5717 5717 5717 5716 5717 5717 5717 5717 5717 5717 5717 5717 5717 5717 5718 5718 5718 5718 5718 5718 5718 5718 5718 5718 5718 5717 5717 5716 5716
5703 5703 5704 5705 5705 5705 5705 5706 5706 5707 5708 5708 5708 5709 5709 5710 5710 5710 5710 5710 5710 5710 5711 5711 5711 5711 5712 5712 5712 5712 5713 5713 5712 5712 5712 5712 5712 5712 5712 5712 5712 5711 5711 5711 5711 5711 5711 5711 5711 5711 5712 5712 5713 5713 5713 5713 5712 5712 5712 5712 5711 5711 5710
5696 5697 5697 5698 5699 5700 5700 5700 5701 5701 5702 5702 5703 5703 5704 5704 5705 5706 5706 5706 5705 5705 5706 5706 5706 5706 5707 5707 5708 5708 5708 5707 5707 5707 5707 5706 5706 5706 5706 5706 5706 5706 5706 5706 5706 5705 5705 5705 5705 5705 5705 5705 5706 5706 5706 5706 5706 5706 5706 5706 5705 5705 5704
5689 5690 5691 5691 5693 5694 5694 5694 5695 5695 5696 5697 5697 5698 5698 5699 5699 5699 5700 5700 5700 5700 5700 5701 5701 5701 5701 5702 5702 5702 5702 5702 5702 5702 5701 5701 5701 5701 5701 5700 5700 5700 5700 5700 5699 5699 5698 5698 5698 5697 5697 5698 5698 5698 5698 5698 5698 5698 5699 5699 5698 5698 5697
5683 5684 5684 5685 5686 5687 5688 5689 5689 5690 5690 5691 5691 5692 5692 5692 5692 5692 5692 5693 5693 5694 5695 5695 5695 5696 5696 5696 5696 5696 5696 5696 5696 5696 5696 5696 5696 5695 5695 5695 5694 5694 5693 5693 5693 5692 5692 5691 5690 5690 5690 5690 5690 5690 5690 5690 5690 5690 5690 5690 5691 5690 5689
5676 5677 5678 5678 5679 5680 5681 5681 5682 5683 5683 5684 5684 5684 5685 5685 5685 5685 5686 5686 5687 5687 5688 5689 5689 5690 5690 5690 5690 5690 5690 5690 5690 5690 5689 5689 5689 5689 5689 5689 5688 5688 5687 5686 5686 5685 5685 5684 5684 5683 5683 5683 5682 5682 5682 5681 5681 5682 5682 5682 5682 5681 5680
5669 5669 5670 5670 5671 5672 5672 5673 5674 5675 5675 5676 5676 5677 5677 5678 5678 5678 5679 5679 5680 5681 5681 5682 5682 5683 5683 5683 5683 5683 5683 5683 5683 5683 5683 5682 5682 5682 5682 5682 5682 5681 5681 5680 5679 5679 5678 5678 5678 5677 5676 5676 5675 5675 5674 5674 5674 5674 5674 5674 5673 5673 5672
5662 5662 5663 5663 5664 5665 5665 5666 5666 5667 5668 5668 5669 5669 5670 5670 5671 5671 5671 5672 5672 5673 5674 5675 5675 5676 5676 5676 5676 5677 5677 5677 5676 5676 5676 5676 5675 5675 5675 5675 5674 5674 5674 5673 5673 5672 5672 5672 5671 5670 5670 5669 5669 5668 5667 5667 5667 5666 5666 5665 5665 5665 5664
5657 5657 5657 5657 5658 5659 5659 5660 5660 5661 5661 5662 5662 5662 5663 5663 5664 5664 5665 5665 5666 5666 5667 5668 5668 5669 5669 5669 5669 5670 5670 5670 5669 5669 5669 5669 5669 5668 5668 5668 5667 5667 5666 5666 5666 5665 5665 5665 5664 5664 5663 5663 5662 5661 5661 5660 5660 5659 5658 5658 5657 5657 5656
5651 5652 5652 5652 5653 5653 5654 5654 5654 5655 5655 5656 5656 5657 5657 5657 5658 5658 5659 5659 5660 5660 5661 5661 5662 5662 5662 5662 5662 5662 5662 5662 5662 5662 5661 5661 5661 5661 5661 5660 5660 5660 5659 5659 5659 5658 5658 5658 5657 5657 5656 5656 5655 5655 5654 5653 5652 5652 5651 5650 5649 5648 5647
5645 5646 5647 5646 5646 5647 5647 5648 5648 5649 5649 5649 5649 5650 5651 5651 5652 5652 5653 5653 5654 5654 5655 5655 5656 5656 5656 5656 5655 5655 5655 5655 5655 5654 5654 5654 5654 5654 5653 5653 5653 5653 5653 5652 5652 5651 5651 5651 5650 5650 5649 5649 5648 5647 5647 5646 5645 5644 5643 5642 5641 5640 5638
5639 5640 5640 5640 5639 5640 5641 5641 5642 5642 5642 5642 5642 5643 5644 5644 5645 5645 5646 5646 5647 5647 5648 5648 5648 5648 5648 5648 5648 5648 5648 5648 5648 5647 5647 5647 5647 5647 5646 5646 5646 5646 5646 5645 5645 5644 5644 5644 5643 5643 5642 5642 5641 5640 5639 5639 5638 5637 5636 5634 5633 5632 5630
5632 5633 5633 5632 5633 5633 5634 5634 5635 5635 5635 5635 5635 5636 5637 5637 5638 5639 5639 5640 5640 5640 5640 5641 5641 5641 5640 5641 5641 5641 5641 5641 5640 5640 5640 5640 5640 5640 5640 5639 5639 5639 5639 5638 5638 5637 5637 5637 5636 5636 5635 5635 5634 5633 5632 5631 5631 5630 5628 5627 5626 5625 5623
5623 5624 5624 5625 5625 5626 5626 5627 5627 5628 5628 5628 5628 5629 5630 5631 5631 5632 5632 5633 5633 5634 5634 5634 5634 5634 5633 5633 5634 5634 5634 5633 5633 5633 5633 5633 5633 5633 5633 5633 5633 5632 5632 5631 5631 5630 5630 5629 5629 5629 5628 5628 5627 5626 5625 5624 5623 5622 5621 5620 5619 5618 5616
5614 5615 5615 5616 5617 5617 5618 5619 5619 5620 5620 5620 5621 5621 5622 5623 5624 5625 5626 5626 5626 5627 5627 5627 5627 5627 5627 5627 5627 5627 5627 5627 5626 5626 5626 5626 5626 5626 5626 5626 5626 5625 5625 5624 5624 5624 5624 5623 5623 5622 5622 5621 5620 5620 5619 5618 5617 5616 5615 5614 5613 5611 5610